040  
ASUS41 KLWX 260511  
RWRLWX  
 
REGIONAL WEATHER ROUNDUP  
NATIONAL WEATHER SERVICE BALTIMORE MD/WASHINGTON DC  
100 AM EDT FRI APR 26 2019  
 
NOTE: "FAIR" INDICATES FEW OR NO CLOUDS BELOW 12,000 FEET  
WITH NO SIGNIFICANT WEATHER AND/OR S TO VISIBILITY
.  
TC=TEMPERATURE CELSIUS  
 
* =NON NWS SITE. STATION DOES NOT REPORT PRECIPITATION (E.G. RAIN,  
SNOW, ETC.), THUNDER, OR FOG.
 
 
DCZ001-MDZ009-015-VAZ040>042-051-053>054-260600-  
WASHINGTON METRO  
 
CITY SKY/WX TMP DP RH WIND PRES REMARKS
 
WASHINGTON NAT LGT RAIN 63 48 58 E3 29.83F  
DULLES LGT RAIN 60 56 86 NE5 29.81F  
ANDREWS AFB PTCLDY 59 50 73 E3 29.82F  
FT BELVOIR LGT RAIN 59 54 82 CALM 29.82F  
QUANTICO FAIR 64 55 72 SE6 29.83F  
LEESBURG* CLOUDY 57 57 100 NE6 29.81F  
MANASSAS* LGT RAIN 61 56 83 SE5 29.82F  
GAITHERSBURG* LGT RAIN 54 53 97 CALM 29.84S  
 

 
 
MDZ006>007-011-014-260600-  
BALTIMORE METRO  
 
CITY SKY/WX TMP DP RH WIND PRES REMARKS
 
BWI AIRPORT LGT RAIN 60 53 77 E3 29.82F  
MD SCIENCE CTR N/A 60 51 72 MISG 29.83  
ANNAPOLIS CLOUDY 63 51 65 CALM 29.81F  
 

 
 
MDZ012-015-019>023-260600-  
MARYLAND EASTERN SHORE  
 
CITY SKY/WX TMP DP RH WIND PRES REMARKS
 
OCEAN CITY FOG 56 55 97 CALM 29.82F VSB 3/4  
SALISBURY FAIR 55 53 93 CALM 29.82F  
CAMBRIDGE* PTCLDY 57 50 77 VRB3 29.83R  
EASTON* FAIR 59 52 78 NE5 29.86F  
 

 
 
MDZ017>025-260600-  
SOUTHERN MARYLAND  
 
CITY SKY/WX TMP DP RH WIND PRES REMARKS
 
PATUXENT RIVER CLOUDY 60 56 86 CALM 29.83S  
ST INIGOES MOCLDY 60 55 83 CALM 29.82F  
LEONARDTOWN* CLOUDY 55 54 94 CALM 29.85R  
 

 
 
MDZ003>005-260600-  
NORTH CENTRAL MARYLAND  
 
CITY SKY/WX TMP DP RH WIND PRES REMARKS
 
FREDERICK* LGT RAIN 59 55 88 CALM 29.87R  
HAGERSTOWN APT LGT RAIN 57 53 86 CALM 29.81F FOG  
 

 
 
MDZ501>502-260600-  
WESTERN MARYLAND  
 
CITY SKY/WX TMP DP RH WIND PRES REMARKS
 
OAKLAND* FAIR 50 50 100 SE14G21 29.75F  
CUMBERLAND* NOT AVBL  
 

 
 
VAZ025>031-260600-  
SHENANDOAH VALLEY  
 
CITY SKY/WX TMP DP RH WIND PRES REMARKS
 
WINCHESTER* FAIR 55 54 94 N3 29.78F FOG  
FRONT ROYAL* MOCLDY 57 57 100 W5 29.78S  
LURAY* MOCLDY 59 59 100 S3 29.80R  
NEW MARKET* FAIR 58 56 96 CALM 29.80R  
STAUNTON* CLOUDY 59 58 98 CALM 29.84S FOG  
WAYNESBORO* MOCLDY 59 59 100 CALM 29.83F  
 

 
 
WVZ021-048>050-054>055-260600-  
EASTERN WEST VIRGINIA PANHANDLE  
 
CITY SKY/WX TMP DP RH WIND PRES REMARKS
 
MARTINSBURG LGT RAIN 56 56 100 CALM 29.78F FOG  
PETERSBURG* FAIR 56 55 95 CALM 29.78S  
 

 
 
VAZ036>039-050-260600-  
CENTRAL FOOTHILLS  
 
CITY SKY/WX TMP DP RH WIND PRES REMARKS
 
CHARLOTTESVILL FAIR 62 59 90 CALM 29.83S  
CULPEPER* FAIR 60 58 93 CALM 29.84R  
ORANGE* FAIR 59 59 100 CALM 29.83S  
GORDONSVILLE* FAIR 60 60 100 CALM 29.82S  
WARRENTON* FAIR 61 55 81 CALM 29.82S  
 

 
 
VAZ055>057-260600-  
NORTH AND CENTRAL PIEDMONT  
 
CITY SKY/WX TMP DP RH WIND PRES REMARKS
 
FREDERICKSBRG* FAIR 64 56 77 SE3 29.82S  
STAFFORD* FAIR 63 56 79 E3 29.87S  
 

 
 
NCZ024-NYZ072-PAZ021-071-VAZ022-071-260600-  
OTHER REGIONAL OBSERVATIONS  
 
CITY SKY/WX TMP DP RH WIND PRES REMARKS
 
NEW YORK CITY CLOUDY 54 47 77 VRB3 29.91F  
PHILADELPHIA CLOUDY 58 49 72 E6 29.87S  
PITTSBURGH CLOUDY 59 58 96 E7 29.62F  
ROANOKE CLOUDY 68 55 63 CALM 29.80F  
RICHMOND MOCLDY 62 57 83 CALM 29.81F  
RALEIGH CLOUDY 71 57 61 S10 29.83F  
 

 
 
ANZ530>537-260600-  
MARINE OBSERVATIONS  
 
STATION/POSITION TIME TEMP WIND PRES
 
AIR SEA DIR/SP/G  
(UTC) (F) (DEG/KT/KT) (MB)  
THOMAS PT LIGHT 0500 60 63 40/ 5/ 5 1010.5F  
BALT KEY BRIDGE 0442 61 100/ 6/ 8 1010.0F  
COVE POINT 0442 60 130/ 3/ 4 1010.5F  
LEWISETTA 0442 62 66 110/ 6/ 7 1009.8F  
SOLOMONS ISLAND 0442 61 62 110/ 6/ 7 1009.4F  
PINEY POINT 0442 80/ 3/ 4 N/A  
 

 
 
 
 
CLICK HERE TO GO TO PREVIOUS BULLETINS.

The Nexlab VA Page
The Nexlab MD Page
The Nexlab WV Page Main Text Page